When you browse on this site, cookies collect data to enhance your experience and personalize the content and advertising you see.
Visit our Privacy Policy to learn more. By continuing to use the site, you agree to this use of cookies and data.
  • In Germany
  • List of Countries
  • For 7 days
  • Water Temperature
  • Weather Map
  • Weather Widgets
  • user-avatar
    Login

    Hourly Weather Novyy Zavod

    Today, 20 February, Thursday

    Time Temperature Precipitation Wind Pressure Humidity
    00:00 -2°C° 0 mm 4 mps 745 mmHg 90%
    01:00 -3°C° 0 mm 4 mps 745 mmHg 90%
    02:00 -3°C° 0 mm 4 mps 745 mmHg 90%
    03:00 -3°C° 0 mm 4 mps 745 mmHg 89%
    04:00 -3°C° 0 mm 4 mps 745 mmHg 89%
    05:00 -4°C° 0 mm 4 mps 745 mmHg 89%
    06:00 -4°C° 0 mm 4 mps 745 mmHg 90%
    07:00 -5°C° 0 mm 4 mps 745 mmHg 91%
    08:00 -4°C° 0 mm 4 mps 745 mmHg 90%
    09:00 -3°C° 0 mm 4 mps 746 mmHg 90%
    10:00 -2°C° 0 mm 3 mps 746 mmHg 89%
    11:00 -1°C° 0 mm 3 mps 746 mmHg 92%
    12:00 -1°C° 0 mm 3 mps 746 mmHg 94%
    13:00 0°C° 0 mm 3 mps 746 mmHg 96%
    14:00 0°C° 0 mm 3 mps 746 mmHg 94%
    15:00 0°C° 0 mm 3 mps 747 mmHg 91%
    16:00 0°C° 0 mm 3 mps 747 mmHg 88%
    17:00 0°C° 0 mm 3 mps 747 mmHg 89%
    18:00 -1°C° 0 mm 3 mps 747 mmHg 89%
    19:00 -1°C° 0 mm 2 mps 747 mmHg 90%
    20:00 -2°C° 0 mm 3 mps 747 mmHg 90%
    21:00 -4°C° 0 mm 3 mps 748 mmHg 91%
    22:00 -5°C° 0 mm 3 mps 748 mmHg 91%
    23:00 -5°C° 0 mm 3 mps 748 mmHg 92%

    Tomorrow, 21 February, Friday

    Time Temperature Precipitation Wind Pressure Humidity
    00:00 -6°C° 0 mm 3 mps 748 mmHg 92%
    01:00 -6°C° 0 mm 3 mps 748 mmHg 92%
    02:00 -6°C° 0 mm 3 mps 748 mmHg 92%
    03:00 -6°C° 0 mm 3 mps 748 mmHg 92%
    04:00 -6°C° 0 mm 3 mps 749 mmHg 91%
    05:00 -7°C° 0 mm 3 mps 749 mmHg 91%
    06:00 -7°C° 0 mm 3 mps 749 mmHg 92%
    07:00 -8°C° 0 mm 3 mps 749 mmHg 92%
    08:00 -6°C° 0 mm 3 mps 749 mmHg 90%
    09:00 -5°C° 0 mm 3 mps 749 mmHg 88%
    10:00 -4°C° 0 mm 3 mps 749 mmHg 87%
    17:00 -1°C° 0 mm 3 mps 751 mmHg 88%
    18:00 -1°C° 0 mm 3 mps 751 mmHg 88%
    19:00 -2°C° 0 mm 2 mps 752 mmHg 89%
    20:00 -2°C° 0 mm 2 mps 752 mmHg 90%
    21:00 -2°C° 0 mm 2 mps 752 mmHg 91%
    22:00 -2°C° 0 mm 2 mps 753 mmHg 92%
    23:00 -3°C° 0 mm 2 mps 753 mmHg 92%

    Day after tomorrow, 22 February, Saturday

    Time Temperature Precipitation Wind Pressure Humidity
    00:00 -3°C° 0 mm 2 mps 753 mmHg 92%
    01:00 -4°C° 0 mm 2 mps 753 mmHg 93%
    02:00 -4°C° 0 mm 2 mps 754 mmHg 92%
    03:00 -5°C° 0 mm 2 mps 754 mmHg 92%
    04:00 -5°C° 0 mm 2 mps 754 mmHg 92%
    05:00 -6°C° 0 mm 2 mps 754 mmHg 92%
    06:00 -6°C° 0 mm 2 mps 754 mmHg 93%
    07:00 -7°C° 0 mm 2 mps 755 mmHg 93%
    08:00 -6°C° 0 mm 2 mps 755 mmHg 92%
    09:00 -5°C° 0 mm 2 mps 755 mmHg 92%
    10:00 -3°C° 0 mm 1 mps 756 mmHg 91%
    11:00 -2°C° 0 mm 1 mps 756 mmHg 90%
    12:00 -1°C° 0 mm 1 mps 756 mmHg 89%
    13:00 0°C° 0 mm 1 mps 756 mmHg 88%
    14:00 -1°C° 0 mm 1 mps 756 mmHg 89%
    15:00 -1°C° 0 mm 1 mps 756 mmHg 90%
    16:00 -1°C° 0 mm 1 mps 756 mmHg 91%
    17:00 -2°C° 0 mm 1 mps 757 mmHg 91%
    18:00 -3°C° 0 mm 1 mps 757 mmHg 91%
    19:00 -4°C° 0 mm 1 mps 757 mmHg 91%
    20:00 -6°C° 0 mm 1 mps 757 mmHg 92%
    21:00 -6°C° 0 mm 1 mps 757 mmHg 93%
    22:00 -6°C° 0 mm 1 mps 757 mmHg 93%
    23:00 -6°C° 0 mm 1 mps 757 mmHg 93%

    23 February, Sunday

    Time Temperature Precipitation Wind Pressure Humidity
    00:00 -6°C° 0 mm 1 mps 757 mmHg 93%
    01:00 -6°C° 0 mm 1 mps 758 mmHg 92%
    02:00 -6°C° 0 mm 1 mps 757 mmHg 92%
    03:00 -6°C° 0 mm 1 mps 757 mmHg 92%
    04:00 -7°C° 0 mm 2 mps 757 mmHg 91%
    05:00 -7°C° 0 mm 2 mps 757 mmHg 92%
    06:00 -8°C° 0 mm 2 mps 757 mmHg 92%
    07:00 -9°C° 0 mm 3 mps 757 mmHg 93%
    08:00 -8°C° 0 mm 3 mps 756 mmHg 93%
    09:00 -7°C° 0 mm 3 mps 756 mmHg 93%
    10:00 -7°C° 0 mm 4 mps 756 mmHg 93%
    11:00 -7°C° 0 mm 4 mps 755 mmHg 92%
    12:00 -7°C° 0 mm 4 mps 755 mmHg 92%
    13:00 -5°C° 0 mm 4 mps 754 mmHg 91%
    14:00 -7°C° 0 mm 4 mps 754 mmHg 92%
    15:00 -8°C° 0 mm 4 mps 753 mmHg 92%
    16:00 -8°C° 0 mm 4 mps 752 mmHg 93%
    17:00 -9°C° 0 mm 4 mps 752 mmHg 93%
    18:00 -10°C° 0 mm 4 mps 752 mmHg 94%
    19:00 -12°C° 0 mm 5 mps 751 mmHg 94%
    20:00 -11°C° 0 mm 5 mps 751 mmHg 93%
    21:00 -11°C° 0 mm 5 mps 750 mmHg 93%
    22:00 -11°C° 0 mm 5 mps 750 mmHg 92%
    23:00 -11°C° 0 mm 5 mps 749 mmHg 91%

    24 February, Monday

    Time Temperature Precipitation Wind Pressure Humidity
    00:00 -11°C° 0 mm 6 mps 749 mmHg 90%
    01:00 -11°C° 0 mm 6 mps 748 mmHg 89%
    02:00 -10°C° 0.1 mm 6 mps 748 mmHg 89%
    03:00 -10°C° 0.1 mm 6 mps 748 mmHg 89%
    04:00 -10°C° 0.1 mm 6 mps 747 mmHg 89%
    05:00 -10°C° 0 mm 6 mps 747 mmHg 89%
    06:00 -11°C° 0 mm 6 mps 747 mmHg 89%
    07:00 -11°C° 0 mm 6 mps 746 mmHg 89%
    08:00 -11°C° 0 mm 6 mps 746 mmHg 89%
    09:00 -12°C° 0 mm 7 mps 746 mmHg 89%
    10:00 -12°C° 0 mm 7 mps 745 mmHg 89%
    11:00 -11°C° 0 mm 7 mps 745 mmHg 89%
    12:00 -11°C° 0 mm 7 mps 745 mmHg 89%
    13:00 -9°C° 0 mm 7 mps 744 mmHg 89%
    14:00 -9°C° 0.1 mm 7 mps 744 mmHg 90%
    15:00 -9°C° 0.1 mm 7 mps 743 mmHg 91%
    16:00 -11°C° 0.1 mm 7 mps 743 mmHg 92%
    17:00 -9°C° 0.1 mm 7 mps 743 mmHg 93%
    18:00 -9°C° 0.1 mm 7 mps 742 mmHg 93%
    19:00 -9°C° 0.1 mm 7 mps 742 mmHg 93%
    20:00 -9°C° 0.3 mm 7 mps 742 mmHg 93%
    21:00 -9°C° 0.3 mm 7 mps 741 mmHg 93%
    22:00 -9°C° 0.3 mm 7 mps 741 mmHg 93%
    23:00 -9°C° 0.5 mm 7 mps 740 mmHg 93%

    25 February, Tuesday

    Time Temperature Precipitation Wind Pressure Humidity
    00:00 -9°C° 0.5 mm 7 mps 740 mmHg 93%
    01:00 -9°C° 0.5 mm 7 mps 740 mmHg 93%
    02:00 -9°C° 0.4 mm 6 mps 739 mmHg 94%
    03:00 -8°C° 0.4 mm 6 mps 739 mmHg 94%
    04:00 -8°C° 0.4 mm 6 mps 739 mmHg 94%
    05:00 -8°C° 0.3 mm 6 mps 739 mmHg 94%
    06:00 -6°C° 0.3 mm 6 mps 739 mmHg 93%
    07:00 -6°C° 0.3 mm 6 mps 739 mmHg 92%
    08:00 -5°C° 0 mm 5 mps 739 mmHg 90%
    09:00 -5°C° 0 mm 5 mps 740 mmHg 87%
    10:00 -4°C° 0 mm 5 mps 740 mmHg 85%
    11:00 -2°C° 0 mm 5 mps 741 mmHg 84%
    12:00 -2°C° 0 mm 5 mps 741 mmHg 83%
    13:00 -1°C° 0 mm 5 mps 742 mmHg 82%
    14:00 -2°C° 0 mm 5 mps 742 mmHg 83%
    15:00 -2°C° 0 mm 4 mps 743 mmHg 83%
    16:00 -2°C° 0 mm 3 mps 743 mmHg 84%
    17:00 -4°C° 0 mm 3 mps 744 mmHg 85%
    18:00 -5°C° 0 mm 3 mps 744 mmHg 86%
    19:00 -7°C° 0 mm 3 mps 745 mmHg 87%
    20:00 -7°C° 0 mm 3 mps 745 mmHg 88%
    21:00 -8°C° 0 mm 3 mps 745 mmHg 89%
    22:00 -8°C° 0 mm 3 mps 746 mmHg 90%
    23:00 -8°C° 0 mm 3 mps 746 mmHg 90%
    Show more